Location: Cran-Gévrier
(45.9039°N, 6.1012°E)
Time: 21:08:07
(UTC+00:00)

Cosmos 1812 Rocket - Pass Details

Date: 09 February 2023
Orbit: 603 x 631 km, 82.5° (Epoch: 23 March)

Event Time Altitude Azimuth Distance (km) Brightness Sun altitude
Rises 19:04:05 0° 345° (NNW) 2,932 7.2 -23.3°
Reaches altitude 10° 19:06:23 10° 340° (NNW) 2,016 6.4 -23.7°
Maximum altitude 19:10:40 48° 267° (W) 823 4.5 -24.4°
Drops below altitude 10° 19:14:54 10° 193° (SSW) 1,985 6.2 -25.2°
Sets 19:17:10 0° 188° (S) 2,881 7.0 -25.5°
